C/2018 A1 ( PanSTARRS )

Japanese version
Home page
Updated on June 25, 2018

---------------------------------------------------------------------

* Profile

Discovery Date January 6, 2018
Magnitude 19.1 mag
Discoverer Pan-STARRS 1 telescope (Haleakala)

* Pictures

* Orbital Elements

Epoch 2017 Oct. 14.0 TT = JDT 2458040.5
T 2017 Oct. 20.42599 TT                                 MPCW
q   2.4193203            (2000.0)            P               Q
n   0.00773508     Peri.   96.38289     +0.13217780     -0.93842469
a  25.3216912      Node   336.62287     +0.21959544     +0.34174552
e   0.9044566      Incl.   53.55918     +0.96659551     +0.05068631
P 127
From 112 observations 2018 Jan. 6-Apr. 18, mean residual 0".5.

* Magnitudes Graph

        m1 = 12.5 + 5 log d + 10.0 log r

---------------------------------------------------------------------

The orbital elements are published on M.P.E.C. 2018-H105.
The magnitudes graphs are made with Comet for Windows.

---------------------------------------------------------------------

Copyright(C) Seiichi Yoshida (comet@aerith.net). All rights reserved.